Showing default

POLAR BEAR, 17070

Orbit data source: Space-Track

POLAR BEAR, 17070 is an American payload satellite in LEO that was launched on Fri, 14 Nov 1986 UTC via an SCOUT G-1 launch vehicle from the Air Force Western Test Range (AFWTR). Payload-class satellites include a variety of spacecraft equipped with specific instruments for various scientific and technological missions. These include communications satellites like Starlink; space stations such as the ISS; scientific satellites like the Hubble; Earth observation satellites from companies like Planet Labs, Umbra, and HawkEye 360; GPS; miniature CubeSats for education and research; and military/defense satellites.

Loading next visibility...
Identifier
17070, 1986-088A
Orbit
LEO
Country
Flag of USUS
Related business
Manufacturer
APL
Mission
Civil Science
Bus & Motor
TRANSIT 5, Unknown motor
Mass
114 kg wet, 114 kg dry
Launch date (UTC)
1986-11-14 (40 years ago)
Launch vehicle
SCOUT G-1
Launch site
Air Force Western Test Range (AFWTR)
Object type
Payload
Rocket body
Debris
Shape & HBR
Oct Cyl + 4 Pan + 1 Ant, 15.0 m
Radar Cross Section
0.163 m², Large (>1 m²)

Expand to show TLE details & history
Last TLE update: 14 hours ago

TLE from 14 hours ago
0 POLAR BEAR
1 17070U 86088A   26236.83546488  .00000075  00000-0  66185-4 0  9992
2 17070  89.6247 173.6600 0041504  71.7014 300.4269 13.75297982994852
Epoch: 2026-08-24T20:03Z
TLE epoch observation values (Epoch: 2026-08-24T20:03:04.165Z)
Latitude
11.6709°
Longitude
-100.1417°
Altitude
967.469 km
Speed
7.376 km/s
True Right ascension
11h 34m 56s
True Declination
11° 36' 18"
Sunlit
Object was in daylight at epoch
Visualization orbit readout
Latitude
Unknown
Longitude
Unknown
Altitude
Unknown
Speed
Unknown
Apparent Right ascension
Unknown
Apparent Declination
Unknown
Sunlit
N/A
Visualization observer readout
Local Sidereal Time
01:11:32
Azimuth
Unknown
Elevation
Unknown
Doppler factor
Unknown
Orbital elements
Apogee altitude
1,008.154 km
Perigee altitude
947.096 km
Semi-major axis
7,355.762 km
Eccentricity
0.00415
Inclination
89.6247°
RAAN
173.66°
Arg. of periapsis
71.7014°
True anomaly
300.01572°
Mean anomaly
300.4269°
Eccentric anomaly
300.22142°
Mean motion
3.44034 °/min
Orbital period
104.64 mins
BSTAR
0.000066185
Loading maneuver chart data...
Computing Atmospheric mass density...
Loading historical data...
Loading historical data...
Loading historical data...
Loading historical data...
Loading historical data...
Loading historical data...
Loading historical data...
Other satellites on launch #88 in the year 1986 (1986-11-14 UTC)

Documentation

Showing up to 5 results
|